Year,Month,Day,Hour,Minute,Value (Times are PST for temperature in C)
2012,05,19,00,00,6.60
2012,05,19,00,01,6.60
2012,05,19,00,02,6.60
2012,05,19,00,03,6.60
2012,05,19,00,04,6.60
2012,05,19,00,05,6.60
2012,05,19,00,06,6.50
2012,05,19,00,07,6.50
2012,05,19,00,08,6.50
2012,05,19,00,09,6.50
2012,05,19,00,10,6.50
2012,05,19,00,11,6.50
2012,05,19,00,12,6.50
2012,05,19,00,13,6.50
2012,05,19,00,14,6.50
2012,05,19,00,15,6.50
2012,05,19,00,16,6.50
2012,05,19,00,17,6.50
2012,05,19,00,18,6.50
2012,05,19,00,19,6.50
2012,05,19,00,20,6.50
2012,05,19,00,21,6.40
2012,05,19,00,22,6.40
2012,05,19,00,23,6.40
2012,05,19,00,24,6.40
2012,05,19,00,25,6.40
2012,05,19,00,26,6.40
2012,05,19,00,27,6.30
2012,05,19,00,28,6.30
2012,05,19,00,29,6.30
2012,05,19,00,30,6.30
2012,05,19,00,31,6.30
2012,05,19,00,32,6.30
2012,05,19,00,33,6.30
2012,05,19,00,34,6.30
2012,05,19,00,35,6.30
2012,05,19,00,36,6.30
2012,05,19,00,37,6.30
2012,05,19,00,38,6.20
2012,05,19,00,39,6.20
2012,05,19,00,40,6.20
2012,05,19,00,41,6.20
2012,05,19,00,42,6.20
2012,05,19,00,43,6.20
2012,05,19,00,44,6.20
2012,05,19,00,45,6.20
2012,05,19,00,46,6.10
2012,05,19,00,47,6.10
2012,05,19,00,48,6.10
2012,05,19,00,49,6.10
2012,05,19,00,50,6.10
2012,05,19,00,51,6.10
2012,05,19,00,52,6.00
2012,05,19,00,53,6.00
2012,05,19,00,54,6.00
2012,05,19,00,55,6.00
2012,05,19,00,56,6.00
2012,05,19,00,57,6.00
2012,05,19,00,58,6.00
2012,05,19,00,59,6.00
2012,05,19,01,00,6.00
2012,05,19,01,01,6.00
2012,05,19,01,02,6.00
2012,05,19,01,03,6.00
2012,05,19,01,04,6.00
2012,05,19,01,05,5.90
2012,05,19,01,06,5.90
2012,05,19,01,07,5.90
2012,05,19,01,08,5.90
2012,05,19,01,09,5.90
2012,05,19,01,10,5.90
2012,05,19,01,11,5.90
2012,05,19,01,12,5.80
2012,05,19,01,13,5.80
2012,05,19,01,14,5.80
2012,05,19,01,15,5.80
2012,05,19,01,16,5.80
2012,05,19,01,17,5.80
2012,05,19,01,18,5.80
2012,05,19,01,19,5.80
2012,05,19,01,20,5.80
2012,05,19,01,21,5.80
2012,05,19,01,22,5.70
2012,05,19,01,23,5.70
2012,05,19,01,24,5.70
2012,05,19,01,25,5.70
2012,05,19,01,26,5.70
2012,05,19,01,27,5.70
2012,05,19,01,28,5.70
2012,05,19,01,29,5.70
2012,05,19,01,30,5.60
2012,05,19,01,31,5.60
2012,05,19,01,32,5.60
2012,05,19,01,33,5.60
2012,05,19,01,34,5.60
2012,05,19,01,35,5.60
2012,05,19,01,36,5.60
2012,05,19,01,37,5.60
2012,05,19,01,38,5.60
2012,05,19,01,39,5.60
2012,05,19,01,40,5.60
2012,05,19,01,41,5.60
2012,05,19,01,42,5.50
2012,05,19,01,43,5.50
2012,05,19,01,44,5.50
2012,05,19,01,45,5.50
2012,05,19,01,46,5.50
2012,05,19,01,47,5.50
2012,05,19,01,48,5.50
2012,05,19,01,49,5.50
2012,05,19,01,50,5.50
2012,05,19,01,51,5.50
2012,05,19,01,52,5.50
2012,05,19,01,53,5.50
2012,05,19,01,54,5.50
2012,05,19,01,55,5.50
2012,05,19,01,56,5.40
2012,05,19,01,57,5.40
2012,05,19,01,58,5.40
2012,05,19,01,59,5.40
2012,05,19,02,00,5.40
2012,05,19,02,01,5.40
2012,05,19,02,02,5.40
2012,05,19,02,03,5.40
2012,05,19,02,04,5.40
2012,05,19,02,05,5.30
2012,05,19,02,06,5.30
2012,05,19,02,07,5.30
2012,05,19,02,08,5.30
2012,05,19,02,09,5.30
2012,05,19,02,10,5.30
2012,05,19,02,11,5.30
2012,05,19,02,12,5.20
2012,05,19,02,13,5.20
2012,05,19,02,14,5.20
2012,05,19,02,15,5.20
2012,05,19,02,16,5.20
2012,05,19,02,17,5.20
2012,05,19,02,18,5.20
2012,05,19,02,19,5.20
2012,05,19,02,20,5.20
2012,05,19,02,21,5.20
2012,05,19,02,22,5.20
2012,05,19,02,23,5.20
2012,05,19,02,24,5.10
2012,05,19,02,25,5.10
2012,05,19,02,26,5.10
2012,05,19,02,27,5.10
2012,05,19,02,28,5.10
2012,05,19,02,29,5.10
2012,05,19,02,30,5.10
2012,05,19,02,31,5.10
2012,05,19,02,32,5.10
2012,05,19,02,33,5.10
2012,05,19,02,34,5.10
2012,05,19,02,35,5.10
2012,05,19,02,36,5.10
2012,05,19,02,37,5.10
2012,05,19,02,38,5.10
2012,05,19,02,39,5.10
2012,05,19,02,40,5.10
2012,05,19,02,41,5.10
2012,05,19,02,42,5.10
2012,05,19,02,43,5.10
2012,05,19,02,44,5.10
2012,05,19,02,45,5.10
2012,05,19,02,46,5.10
2012,05,19,02,47,5.10
2012,05,19,02,48,5.10
2012,05,19,02,49,5.10
2012,05,19,02,50,5.00
2012,05,19,02,51,5.00
2012,05,19,02,52,5.00
2012,05,19,02,53,4.90
2012,05,19,02,54,4.90
2012,05,19,02,55,4.90
2012,05,19,02,56,4.90
2012,05,19,02,57,4.90
2012,05,19,02,58,4.90
2012,05,19,02,59,4.90
2012,05,19,03,00,4.90
2012,05,19,03,01,4.80
2012,05,19,03,02,4.80
2012,05,19,03,06,4.80
2012,05,19,03,07,4.80
2012,05,19,03,08,4.80
2012,05,19,03,09,4.80
2012,05,19,03,10,4.80
2012,05,19,03,11,4.80
2012,05,19,03,12,4.80
2012,05,19,03,13,4.80
2012,05,19,03,14,4.80
2012,05,19,03,15,4.80
2012,05,19,03,16,4.80
2012,05,19,03,17,4.80
2012,05,19,03,18,4.80
2012,05,19,03,19,4.80
2012,05,19,03,20,4.80
2012,05,19,03,21,4.80
2012,05,19,03,22,4.80
2012,05,19,03,23,4.80
2012,05,19,03,24,4.80
2012,05,19,03,25,4.80
2012,05,19,03,26,4.80
2012,05,19,03,27,4.80
2012,05,19,03,28,4.80
2012,05,19,03,29,4.80
2012,05,19,03,30,4.80
2012,05,19,03,31,4.80
2012,05,19,03,32,4.80
2012,05,19,03,33,4.80
2012,05,19,03,34,4.80
2012,05,19,03,35,4.80
2012,05,19,03,36,4.80
2012,05,19,03,37,4.80
2012,05,19,03,38,4.80
2012,05,19,03,39,4.80
2012,05,19,03,40,4.80
2012,05,19,03,41,4.80
2012,05,19,03,42,4.80
2012,05,19,03,43,4.80
2012,05,19,03,44,4.70
2012,05,19,03,45,4.70
2012,05,19,03,46,4.70
2012,05,19,03,47,4.70
2012,05,19,03,48,4.70
2012,05,19,03,49,4.70
2012,05,19,03,50,4.70
2012,05,19,03,51,4.60
2012,05,19,03,52,4.60
2012,05,19,03,53,4.60
2012,05,19,03,54,4.60
2012,05,19,03,55,4.60
2012,05,19,03,56,4.60
2012,05,19,03,57,4.50
2012,05,19,03,58,4.50
2012,05,19,03,59,4.50
2012,05,19,04,00,4.50
2012,05,19,04,01,4.50
2012,05,19,04,02,4.40
2012,05,19,04,03,4.40
2012,05,19,04,04,4.40
2012,05,19,04,05,4.40
2012,05,19,04,06,4.40
2012,05,19,04,07,4.40
2012,05,19,04,08,4.40
2012,05,19,04,09,4.40
2012,05,19,04,10,4.40
2012,05,19,04,11,4.40
2012,05,19,04,12,4.40
2012,05,19,04,13,4.40
2012,05,19,04,14,4.40
2012,05,19,04,15,4.40
2012,05,19,04,16,4.40
2012,05,19,04,17,4.40
2012,05,19,04,18,4.40
2012,05,19,04,19,4.40
2012,05,19,04,20,4.50
2012,05,19,04,21,4.50
2012,05,19,04,22,4.50
2012,05,19,04,23,4.50
2012,05,19,04,24,4.40
2012,05,19,04,25,4.40
2012,05,19,04,26,4.40
2012,05,19,04,27,4.40
2012,05,19,04,28,4.40
2012,05,19,04,29,4.50
2012,05,19,04,30,4.40
2012,05,19,04,31,4.40
2012,05,19,04,32,4.40
2012,05,19,04,33,4.40
2012,05,19,04,34,4.40
2012,05,19,04,35,4.40
2012,05,19,04,36,4.40
2012,05,19,04,37,4.40
2012,05,19,04,38,4.40
2012,05,19,04,39,4.40
2012,05,19,04,40,4.30
2012,05,19,04,41,4.30
2012,05,19,04,42,4.30
2012,05,19,04,43,4.30
2012,05,19,04,44,4.30
2012,05,19,04,45,4.30
2012,05,19,04,46,4.30
2012,05,19,04,47,4.20
2012,05,19,04,48,4.20
2012,05,19,04,49,4.20
2012,05,19,04,50,4.20
2012,05,19,04,51,4.20
2012,05,19,04,52,4.20
2012,05,19,04,53,4.10
2012,05,19,04,54,4.10
2012,05,19,04,55,4.10
2012,05,19,04,56,4.10
2012,05,19,04,57,4.10
2012,05,19,04,58,4.10
2012,05,19,04,59,4.10
2012,05,19,05,00,4.10
2012,05,19,05,01,4.10
2012,05,19,05,02,4.10
2012,05,19,05,03,4.10
2012,05,19,05,04,4.10
2012,05,19,05,05,4.10
2012,05,19,05,06,4.10
2012,05,19,05,07,4.10
2012,05,19,05,08,4.20
2012,05,19,05,09,4.20
2012,05,19,05,10,4.20
2012,05,19,05,11,4.20
2012,05,19,05,12,4.20
2012,05,19,05,13,4.20
2012,05,19,05,14,4.10
2012,05,19,05,15,4.10
2012,05,19,05,16,4.10
2012,05,19,05,17,4.10
2012,05,19,05,18,4.10
2012,05,19,05,19,4.10
2012,05,19,05,20,4.10
2012,05,19,05,21,4.10
2012,05,19,05,22,4.10
2012,05,19,05,23,4.10
2012,05,19,05,24,4.10
2012,05,19,05,25,4.00
2012,05,19,05,26,4.00
2012,05,19,05,27,4.00
2012,05,19,05,28,4.00
2012,05,19,05,29,4.00
2012,05,19,05,30,4.00
2012,05,19,05,31,4.00
2012,05,19,05,32,4.00
2012,05,19,05,33,4.00
2012,05,19,05,34,3.90
2012,05,19,05,35,3.90
2012,05,19,05,36,3.90
2012,05,19,05,37,3.90
2012,05,19,05,38,3.90
2012,05,19,05,39,3.90
2012,05,19,05,40,3.90
2012,05,19,05,41,3.90
2012,05,19,05,42,3.90
2012,05,19,05,43,3.90
2012,05,19,05,44,3.90
2012,05,19,05,45,3.90
2012,05,19,05,46,3.90
2012,05,19,05,47,3.90
2012,05,19,05,48,3.80
2012,05,19,05,49,3.90
2012,05,19,05,50,3.80
2012,05,19,05,51,3.80
2012,05,19,05,52,3.80
2012,05,19,05,53,3.80
2012,05,19,05,54,3.80
2012,05,19,05,55,3.80
2012,05,19,05,56,3.80
2012,05,19,05,57,3.80
2012,05,19,05,58,3.80
2012,05,19,05,59,3.80
2012,05,19,06,00,3.80
2012,05,19,06,01,3.80
2012,05,19,06,02,3.80
2012,05,19,06,03,3.90
2012,05,19,06,04,3.90
2012,05,19,06,05,3.90
2012,05,19,06,06,3.90
2012,05,19,06,07,3.90
2012,05,19,06,08,3.90
2012,05,19,06,09,3.90
2012,05,19,06,10,3.90
2012,05,19,06,11,3.90
2012,05,19,06,12,3.90
2012,05,19,06,13,3.90
2012,05,19,06,14,3.90
2012,05,19,06,15,3.90
2012,05,19,06,16,3.90
2012,05,19,06,17,3.90
2012,05,19,06,18,3.80
2012,05,19,06,19,3.80
2012,05,19,06,20,3.80
2012,05,19,06,21,3.80
2012,05,19,06,22,3.80
2012,05,19,06,23,3.80
2012,05,19,06,24,3.80
2012,05,19,06,25,3.80
2012,05,19,06,26,3.80
2012,05,19,06,27,3.80
2012,05,19,06,28,3.80
2012,05,19,06,29,3.80
2012,05,19,06,30,3.80
2012,05,19,06,31,3.90
2012,05,19,06,32,3.90
2012,05,19,06,33,3.90
2012,05,19,06,34,3.90
2012,05,19,06,35,3.90
2012,05,19,06,36,4.00
2012,05,19,06,37,4.00
2012,05,19,06,38,4.00
2012,05,19,06,39,4.00
2012,05,19,06,40,4.10
2012,05,19,06,41,4.10
2012,05,19,06,42,4.10
2012,05,19,06,43,4.10
2012,05,19,06,44,4.20
2012,05,19,06,45,4.20
2012,05,19,06,46,4.20
2012,05,19,06,47,4.20
2012,05,19,06,48,4.30
2012,05,19,06,49,4.30
2012,05,19,06,50,4.30
2012,05,19,06,51,4.30
2012,05,19,06,52,4.30
2012,05,19,06,53,4.30
2012,05,19,06,54,4.40
2012,05,19,06,55,4.40
2012,05,19,06,56,4.40
2012,05,19,06,57,4.40
2012,05,19,06,58,4.40
2012,05,19,06,59,4.50
2012,05,19,07,00,4.50
2012,05,19,07,01,4.50
2012,05,19,07,02,4.60
2012,05,19,07,03,4.60
2012,05,19,07,04,4.60
2012,05,19,07,05,4.60
2012,05,19,07,06,4.60
2012,05,19,07,07,4.70
2012,05,19,07,08,4.70
2012,05,19,07,09,4.70
2012,05,19,07,10,4.70
2012,05,19,07,11,4.70
2012,05,19,07,12,4.70
2012,05,19,07,13,4.80
2012,05,19,07,14,4.80
2012,05,19,07,15,4.80
2012,05,19,07,16,4.80
2012,05,19,07,17,4.80
2012,05,19,07,18,4.90
2012,05,19,07,19,4.90
2012,05,19,07,20,4.90
2012,05,19,07,21,4.90
2012,05,19,07,22,5.00
2012,05,19,07,23,5.00
2012,05,19,07,24,5.00
2012,05,19,07,25,5.10
2012,05,19,07,26,5.10
2012,05,19,07,27,5.10
2012,05,19,07,28,5.20
2012,05,19,07,29,5.20
2012,05,19,07,30,5.20
2012,05,19,07,31,5.30
2012,05,19,07,32,5.30
2012,05,19,07,33,5.30
2012,05,19,07,34,5.40
2012,05,19,07,35,5.40
2012,05,19,07,36,5.40
2012,05,19,07,37,5.40
2012,05,19,07,38,5.40
2012,05,19,07,39,5.40
2012,05,19,07,40,5.40
2012,05,19,07,41,5.50
2012,05,19,07,42,5.50
2012,05,19,07,43,5.50
2012,05,19,07,44,5.60
2012,05,19,07,45,5.70
2012,05,19,07,46,5.80
2012,05,19,07,47,5.90
2012,05,19,07,48,6.00
2012,05,19,07,49,6.10
2012,05,19,07,50,6.10
2012,05,19,07,51,6.10
2012,05,19,07,52,6.20
2012,05,19,07,53,6.20
2012,05,19,07,54,6.20
2012,05,19,07,55,6.30
2012,05,19,07,56,6.30
2012,05,19,07,57,6.30
2012,05,19,07,58,6.30
2012,05,19,07,59,6.40
2012,05,19,08,00,6.40
2012,05,19,08,01,6.40
2012,05,19,08,02,6.50
2012,05,19,08,03,6.50
2012,05,19,08,04,6.60
2012,05,19,08,05,6.70
2012,05,19,08,06,6.70
2012,05,19,08,07,6.70
2012,05,19,08,08,6.70
2012,05,19,08,09,6.70
2012,05,19,08,10,6.70
2012,05,19,08,11,6.80
2012,05,19,08,12,6.80
2012,05,19,08,13,6.90
2012,05,19,08,14,6.90
2012,05,19,08,15,7.00
2012,05,19,08,16,7.10
2012,05,19,08,17,7.20
2012,05,19,08,18,7.20
2012,05,19,08,19,7.30
2012,05,19,08,20,7.30
2012,05,19,08,21,7.40
2012,05,19,08,22,7.40
2012,05,19,08,23,7.40
2012,05,19,08,24,7.40
2012,05,19,08,25,7.50
2012,05,19,08,26,7.40
2012,05,19,08,27,7.40
2012,05,19,08,28,7.40
2012,05,19,08,29,7.50
2012,05,19,08,30,7.50
2012,05,19,08,31,7.60
2012,05,19,08,32,7.60
2012,05,19,08,33,7.60
2012,05,19,08,34,7.60
2012,05,19,08,35,7.60
2012,05,19,08,36,7.70
2012,05,19,08,37,7.70
2012,05,19,08,38,7.80
2012,05,19,08,39,7.80
2012,05,19,08,40,7.80
2012,05,19,08,41,7.90
2012,05,19,08,42,7.90
2012,05,19,08,43,8.00
2012,05,19,08,44,8.00
2012,05,19,08,45,8.10
2012,05,19,08,46,8.10
2012,05,19,08,47,8.10
2012,05,19,08,48,8.10
2012,05,19,08,49,8.10
2012,05,19,08,50,8.20
2012,05,19,08,51,8.20
2012,05,19,08,52,8.30
2012,05,19,08,53,8.40
2012,05,19,08,54,8.50
2012,05,19,08,55,8.60
2012,05,19,08,56,8.70
2012,05,19,08,57,8.80
2012,05,19,08,58,8.80
2012,05,19,08,59,8.90
2012,05,19,09,00,9.00
2012,05,19,09,01,9.10
2012,05,19,09,02,9.20
2012,05,19,09,03,9.30
2012,05,19,09,04,9.40
2012,05,19,09,05,9.50
2012,05,19,09,06,9.50
2012,05,19,09,07,9.50
2012,05,19,09,08,9.50
2012,05,19,09,09,9.40
2012,05,19,09,10,9.40
2012,05,19,09,11,9.40
2012,05,19,09,12,9.40
2012,05,19,09,13,9.30
2012,05,19,09,14,9.30
2012,05,19,09,15,9.30
2012,05,19,09,16,9.30
2012,05,19,09,17,9.30
2012,05,19,09,18,9.30
2012,05,19,09,19,9.30
2012,05,19,09,20,9.30
2012,05,19,09,21,9.30
2012,05,19,09,22,9.40
2012,05,19,09,23,9.40
2012,05,19,09,24,9.40
2012,05,19,09,25,9.50
2012,05,19,09,26,9.60
2012,05,19,09,27,9.70
2012,05,19,09,28,9.70
2012,05,19,09,29,9.80
2012,05,19,09,30,9.80
2012,05,19,09,31,9.90
2012,05,19,09,32,10.00
2012,05,19,09,33,10.10
2012,05,19,09,34,10.20
2012,05,19,09,35,10.30
2012,05,19,09,36,10.30
2012,05,19,09,37,10.30
2012,05,19,09,38,10.30
2012,05,19,09,39,10.40
2012,05,19,09,40,10.50
2012,05,19,09,41,10.50
2012,05,19,09,42,10.50
2012,05,19,09,43,10.60
2012,05,19,09,44,10.60
2012,05,19,09,45,10.60
2012,05,19,09,46,10.70
2012,05,19,09,47,10.70
2012,05,19,09,48,10.80
2012,05,19,09,49,10.90
2012,05,19,09,50,11.00
2012,05,19,09,51,11.10
2012,05,19,09,52,11.10
2012,05,19,09,53,11.10
2012,05,19,09,54,11.10
2012,05,19,09,55,11.20
2012,05,19,09,56,11.20
2012,05,19,09,57,11.30
2012,05,19,09,58,11.30
2012,05,19,09,59,11.30
2012,05,19,10,00,11.30
2012,05,19,10,01,11.40
2012,05,19,10,02,11.40
2012,05,19,10,03,11.40
2012,05,19,10,04,11.40
2012,05,19,10,05,11.40
2012,05,19,10,06,11.40
2012,05,19,10,07,11.50
2012,05,19,10,08,11.50
2012,05,19,10,09,11.60
2012,05,19,10,10,11.60
2012,05,19,10,11,11.70
2012,05,19,10,12,11.70
2012,05,19,10,13,11.70
2012,05,19,10,14,11.80
2012,05,19,10,15,11.80
2012,05,19,10,16,11.80
2012,05,19,10,17,11.80
2012,05,19,10,18,11.90
2012,05,19,10,19,11.90
2012,05,19,10,20,11.90
2012,05,19,10,21,11.90
2012,05,19,10,22,11.90
2012,05,19,10,23,11.90
2012,05,19,10,24,12.00
2012,05,19,10,25,12.00
2012,05,19,10,26,12.10
2012,05,19,10,27,12.20
2012,05,19,10,28,12.20
2012,05,19,10,29,12.20
2012,05,19,10,30,12.20
2012,05,19,10,31,12.30
2012,05,19,10,32,12.30
2012,05,19,10,33,12.30
2012,05,19,10,34,12.40
2012,05,19,10,35,12.50
2012,05,19,10,36,12.60
2012,05,19,10,37,12.70
2012,05,19,10,38,12.60
2012,05,19,10,39,12.70
2012,05,19,10,40,12.70
2012,05,19,10,41,12.70
2012,05,19,10,42,12.80
2012,05,19,10,43,12.80
2012,05,19,10,44,12.90
2012,05,19,10,45,13.00
2012,05,19,10,46,13.00
2012,05,19,10,47,13.00
2012,05,19,10,48,13.10
2012,05,19,10,49,13.10
2012,05,19,10,50,13.20
2012,05,19,10,51,13.30
2012,05,19,10,52,13.40
2012,05,19,10,53,13.40
2012,05,19,10,54,13.40
2012,05,19,10,55,13.40
2012,05,19,10,56,13.50
2012,05,19,10,57,13.50
2012,05,19,10,58,13.50
2012,05,19,10,59,13.50
2012,05,19,11,00,13.50
2012,05,19,11,01,13.60
2012,05,19,11,02,13.60
2012,05,19,11,03,13.70
2012,05,19,11,04,13.80
2012,05,19,11,05,14.00
2012,05,19,11,06,14.10
2012,05,19,11,07,14.20
2012,05,19,11,08,14.20
2012,05,19,11,09,14.30
2012,05,19,11,10,14.30
2012,05,19,11,11,14.30
2012,05,19,11,12,14.30
2012,05,19,11,13,14.40
2012,05,19,11,14,14.40
2012,05,19,11,15,14.50
2012,05,19,11,16,14.60
2012,05,19,11,17,14.80
2012,05,19,11,18,14.90
2012,05,19,11,19,15.00
2012,05,19,11,20,15.10
2012,05,19,11,21,15.00
2012,05,19,11,22,15.00
2012,05,19,11,23,15.00
2012,05,19,11,24,15.10
2012,05,19,11,25,15.10
2012,05,19,11,26,15.10
2012,05,19,11,27,15.10
2012,05,19,11,28,15.10
2012,05,19,11,29,15.20
2012,05,19,11,30,15.20
2012,05,19,11,31,15.20
2012,05,19,11,32,15.20
2012,05,19,11,33,15.30
2012,05,19,11,34,15.40
2012,05,19,11,35,15.40
2012,05,19,11,36,15.40
2012,05,19,11,37,15.40
2012,05,19,11,38,15.40
2012,05,19,11,39,15.30
2012,05,19,11,40,15.40
2012,05,19,11,41,15.40
2012,05,19,11,42,15.50
2012,05,19,11,43,15.50
2012,05,19,11,44,15.60
2012,05,19,11,45,15.60
2012,05,19,11,46,15.60
2012,05,19,11,47,15.70
2012,05,19,11,48,15.80
2012,05,19,11,49,15.90
2012,05,19,11,50,15.90
2012,05,19,11,51,16.00
2012,05,19,11,52,16.10
2012,05,19,11,53,16.20
2012,05,19,11,54,16.30
2012,05,19,11,55,16.30
2012,05,19,11,56,16.30
2012,05,19,11,57,16.30
2012,05,19,11,58,16.30
2012,05,19,11,59,16.30
2012,05,19,12,00,16.40
2012,05,19,12,01,16.50
2012,05,19,12,02,16.70
2012,05,19,12,03,16.70
2012,05,19,12,04,16.60
2012,05,19,12,05,16.50
2012,05,19,12,06,16.50
2012,05,19,12,07,16.50
2012,05,19,12,08,16.60
2012,05,19,12,09,16.50
2012,05,19,12,10,16.50
2012,05,19,12,11,16.40
2012,05,19,12,12,16.40
2012,05,19,12,13,16.40
2012,05,19,12,14,16.40
2012,05,19,12,15,16.30
2012,05,19,12,16,16.30
2012,05,19,12,17,16.30
2012,05,19,12,18,16.40
2012,05,19,12,19,16.50
2012,05,19,12,20,16.60
2012,05,19,12,21,16.60
2012,05,19,12,22,16.70
2012,05,19,12,23,16.70
2012,05,19,12,24,16.80
2012,05,19,12,25,16.90
2012,05,19,12,26,16.90
2012,05,19,12,27,16.90
2012,05,19,12,28,17.00
2012,05,19,12,29,17.00
2012,05,19,12,30,17.00
2012,05,19,12,31,17.00
2012,05,19,12,32,17.00
2012,05,19,12,33,16.90
2012,05,19,12,34,17.00
2012,05,19,12,35,17.10
2012,05,19,12,36,17.20
2012,05,19,12,37,17.20
2012,05,19,12,38,17.30
2012,05,19,12,39,17.30
2012,05,19,12,40,17.30
2012,05,19,12,41,17.30
2012,05,19,12,42,17.20
2012,05,19,12,43,17.20
2012,05,19,12,44,17.20
2012,05,19,12,45,17.30
2012,05,19,12,46,17.30
2012,05,19,12,47,17.30
2012,05,19,12,48,17.40
2012,05,19,12,49,17.40
2012,05,19,12,50,17.40
2012,05,19,12,51,17.30
2012,05,19,12,52,17.20
2012,05,19,12,53,17.20
2012,05,19,12,54,17.10
2012,05,19,12,55,17.10
2012,05,19,12,56,17.00
2012,05,19,12,57,17.10
2012,05,19,12,58,17.20
2012,05,19,12,59,17.30
2012,05,19,13,00,17.40
2012,05,19,13,01,17.50
2012,05,19,13,02,17.50
2012,05,19,13,03,17.50
2012,05,19,13,04,17.60
2012,05,19,13,05,17.70
2012,05,19,13,06,17.70
2012,05,19,13,07,17.80
2012,05,19,13,08,17.80
2012,05,19,13,09,17.80
2012,05,19,13,10,17.80
2012,05,19,13,11,17.80
2012,05,19,13,12,17.90
2012,05,19,13,13,17.90
2012,05,19,13,14,18.00
2012,05,19,13,15,18.10
2012,05,19,13,16,18.00
2012,05,19,13,17,18.00
2012,05,19,13,18,18.00
2012,05,19,13,19,18.00
2012,05,19,13,20,18.00
2012,05,19,13,21,18.00
2012,05,19,13,22,18.00
2012,05,19,13,23,17.90
2012,05,19,13,24,17.80
2012,05,19,13,25,17.80
2012,05,19,13,26,17.80
2012,05,19,13,27,17.70
2012,05,19,13,28,17.70
2012,05,19,13,29,17.60
2012,05,19,13,30,17.60
2012,05,19,13,31,17.60
2012,05,19,13,32,17.60
2012,05,19,13,33,17.70
2012,05,19,13,34,17.80
2012,05,19,13,35,17.90
2012,05,19,13,36,18.10
2012,05,19,13,37,18.20
2012,05,19,13,38,18.20
2012,05,19,13,39,18.10
2012,05,19,13,40,18.00
2012,05,19,13,41,18.00
2012,05,19,13,42,17.90
2012,05,19,13,43,17.90
2012,05,19,13,44,17.90
2012,05,19,13,45,18.00
2012,05,19,13,46,17.90
2012,05,19,13,47,17.90
2012,05,19,13,48,17.90
2012,05,19,13,49,18.00
2012,05,19,13,50,18.10
2012,05,19,13,51,18.20
2012,05,19,13,52,18.30
2012,05,19,13,53,18.40
2012,05,19,13,54,18.50
2012,05,19,13,55,18.60
2012,05,19,13,56,18.70
2012,05,19,13,57,18.70
2012,05,19,13,58,18.60
2012,05,19,13,59,18.60
2012,05,19,14,00,18.60
2012,05,19,14,01,18.60
2012,05,19,14,02,18.50
2012,05,19,14,03,18.50
2012,05,19,14,04,18.50
2012,05,19,14,05,18.50
2012,05,19,14,06,18.60
2012,05,19,14,07,18.50
2012,05,19,14,08,18.50
2012,05,19,14,09,18.50
2012,05,19,14,10,18.40
2012,05,19,14,11,18.40
2012,05,19,14,12,18.40
2012,05,19,14,13,18.50
2012,05,19,14,14,18.60
2012,05,19,14,15,18.60
2012,05,19,14,16,18.60
2012,05,19,14,17,18.70
2012,05,19,14,18,18.60
2012,05,19,14,19,18.50
2012,05,19,14,20,18.40
2012,05,19,14,21,18.30
2012,05,19,14,22,18.30
2012,05,19,14,23,18.30
2012,05,19,14,24,18.40
2012,05,19,14,25,18.40
2012,05,19,14,26,18.50
2012,05,19,14,27,18.50
2012,05,19,14,28,18.50
2012,05,19,14,29,18.60
2012,05,19,14,30,18.60
2012,05,19,14,31,18.70
2012,05,19,14,32,18.70
2012,05,19,14,33,18.80
2012,05,19,14,34,18.90
2012,05,19,14,35,18.90
2012,05,19,14,36,18.90
2012,05,19,14,37,18.90
2012,05,19,14,38,18.90
2012,05,19,14,39,19.00
2012,05,19,14,40,18.90
2012,05,19,14,41,18.90
2012,05,19,14,42,18.80
2012,05,19,14,43,18.80
2012,05,19,14,44,18.70
2012,05,19,14,45,18.70
2012,05,19,14,46,18.70
2012,05,19,14,47,18.60
2012,05,19,14,48,18.50
2012,05,19,14,49,18.50
2012,05,19,14,50,18.50
2012,05,19,14,51,18.60
2012,05,19,14,52,18.70
2012,05,19,14,53,18.80
2012,05,19,14,54,18.80
2012,05,19,14,55,18.70
2012,05,19,14,56,18.70
2012,05,19,14,57,18.60
2012,05,19,14,58,18.70
2012,05,19,14,59,18.70
2012,05,19,15,00,18.70
2012,05,19,15,01,18.70
2012,05,19,15,02,18.50
2012,05,19,15,03,18.40
2012,05,19,15,04,18.30
2012,05,19,15,05,18.30
2012,05,19,15,06,18.30
2012,05,19,15,07,18.30
2012,05,19,15,08,18.30
2012,05,19,15,09,18.30
2012,05,19,15,10,18.30
2012,05,19,15,11,18.20
2012,05,19,15,12,18.20
2012,05,19,15,13,18.20
2012,05,19,15,14,18.20
2012,05,19,15,15,18.20
2012,05,19,15,16,18.20
2012,05,19,15,17,18.20
2012,05,19,15,18,18.20
2012,05,19,15,19,18.20
2012,05,19,15,20,18.20
2012,05,19,15,21,18.30
2012,05,19,15,22,18.40
2012,05,19,15,23,18.50
2012,05,19,15,24,18.60
2012,05,19,15,25,18.70
2012,05,19,15,26,18.70
2012,05,19,15,27,18.70
2012,05,19,15,28,18.70
2012,05,19,15,29,18.60
2012,05,19,15,30,18.50
2012,05,19,15,31,18.40
2012,05,19,15,32,18.40
2012,05,19,15,33,18.40
2012,05,19,15,34,18.40
2012,05,19,15,35,18.40
2012,05,19,15,36,18.30
2012,05,19,15,37,18.30
2012,05,19,15,38,18.30
2012,05,19,15,39,18.30
2012,05,19,15,40,18.30
2012,05,19,15,41,18.30
2012,05,19,15,42,18.30
2012,05,19,15,43,18.20
2012,05,19,15,44,18.30
2012,05,19,15,45,18.30
2012,05,19,15,46,18.30
2012,05,19,15,47,18.40
2012,05,19,15,48,18.40
2012,05,19,15,49,18.50
2012,05,19,15,50,18.60
2012,05,19,15,51,18.70
2012,05,19,15,52,18.80
2012,05,19,15,53,18.80
2012,05,19,15,54,18.80
2012,05,19,15,55,18.80
2012,05,19,15,56,18.80
2012,05,19,15,57,18.80
2012,05,19,15,58,18.80
2012,05,19,15,59,18.80
2012,05,19,16,00,18.80
2012,05,19,16,01,18.80
2012,05,19,16,02,18.80
2012,05,19,16,03,18.90
2012,05,19,16,04,18.90
2012,05,19,16,05,19.00
2012,05,19,16,06,19.00
2012,05,19,16,07,18.90
2012,05,19,16,08,18.90
2012,05,19,16,09,18.80
2012,05,19,16,10,18.80
2012,05,19,16,11,18.80
2012,05,19,16,12,18.80
2012,05,19,16,13,18.80
2012,05,19,16,14,18.80
2012,05,19,16,15,18.80
2012,05,19,16,16,18.90
2012,05,19,16,17,18.90
2012,05,19,16,18,18.90
2012,05,19,16,19,19.00
2012,05,19,16,20,19.00
2012,05,19,16,21,19.00
2012,05,19,16,22,18.90
2012,05,19,16,23,18.90
2012,05,19,16,24,18.90
2012,05,19,16,25,18.90
2012,05,19,16,26,18.90
2012,05,19,16,27,19.00
2012,05,19,16,28,19.10
2012,05,19,16,29,19.20
2012,05,19,16,30,19.20
2012,05,19,16,31,19.20
2012,05,19,16,32,19.20
2012,05,19,16,33,19.10
2012,05,19,16,34,19.10
2012,05,19,16,35,19.10
2012,05,19,16,36,19.10
2012,05,19,16,37,19.10
2012,05,19,16,38,19.10
2012,05,19,16,39,19.10
2012,05,19,16,40,19.10
2012,05,19,16,41,19.10
2012,05,19,16,42,19.10
2012,05,19,16,43,19.10
2012,05,19,16,44,19.10
2012,05,19,16,45,19.10
2012,05,19,16,46,19.10
2012,05,19,16,47,19.10
2012,05,19,16,48,19.10
2012,05,19,16,49,19.00
2012,05,19,16,50,19.00
2012,05,19,16,51,19.00
2012,05,19,16,52,19.00
2012,05,19,16,53,19.00
2012,05,19,16,54,19.00
2012,05,19,16,55,19.00
2012,05,19,16,56,18.90
2012,05,19,16,57,18.90
2012,05,19,16,58,18.90
2012,05,19,16,59,18.80
2012,05,19,17,00,18.80
2012,05,19,17,01,18.70
2012,05,19,17,02,18.70
2012,05,19,17,03,18.60
2012,05,19,17,04,18.60
2012,05,19,17,05,18.60
2012,05,19,17,06,18.60
2012,05,19,17,07,18.60
2012,05,19,17,08,18.60
2012,05,19,17,09,18.70
2012,05,19,17,10,18.70
2012,05,19,17,11,18.80
2012,05,19,17,12,18.70
2012,05,19,17,13,18.70
2012,05,19,17,14,18.70
2012,05,19,17,15,18.70
2012,05,19,17,16,18.60
2012,05,19,17,17,18.50
2012,05,19,17,18,18.50
2012,05,19,17,19,18.40
2012,05,19,17,20,18.40
2012,05,19,17,21,18.40
2012,05,19,17,22,18.50
2012,05,19,17,23,18.50
2012,05,19,17,24,18.60
2012,05,19,17,25,18.60
2012,05,19,17,26,18.60
2012,05,19,17,27,18.60
2012,05,19,17,28,18.70
2012,05,19,17,29,18.70
2012,05,19,17,30,18.60
2012,05,19,17,31,18.50
2012,05,19,17,32,18.40
2012,05,19,17,33,18.30
2012,05,19,17,34,18.30
2012,05,19,17,35,18.30
2012,05,19,17,36,18.30
2012,05,19,17,37,18.30
2012,05,19,17,38,18.40
2012,05,19,17,39,18.40
2012,05,19,17,40,18.40
2012,05,19,17,41,18.40
2012,05,19,17,42,18.40
2012,05,19,17,43,18.40
2012,05,19,17,44,18.40
2012,05,19,17,45,18.40
2012,05,19,17,46,18.40
2012,05,19,17,47,18.40